Weather in Page

United States     36°54′28″N   111°27′30″W
temp.,
°C
wind,
m/s
gust,
m/s
humid.,
%
clouds,
%
prec.,
mm/h
press.,
hPa
HPBL,
m
16 may, sun
sun1600:00+18wsw12140 0.0 100514
03:00+16ssw22150 0.0 100611
06:00+13sse12190 0.0 100811
09:00+19sse24190 0.0 1008696
12:00+25ssw79130 0.0 10063341
15:00+27s689100 0.0 10034705
18:00+25sw67850 0.0 10013649
21:00+21ssw599100 0.0 1005207
17 may, mon
mon1700:00+17wsw33145 0.0 100718
03:00+14sw222260 0.0 100712
06:00+13s1126100 0.0 100811
09:00+17sw12225 0.0 1009637
12:00+22nnw13192 0.0 10072524
15:00+25wnw341293 0.0 10043629
18:00+24w86151 0.0 10041876
21:00+20w711260 0.0 1006297
18 may, tue
tue1800:00+17sw33340 0.0 100732
03:00+15wsw2238100 0.0 100715
06:00+14wnw2241100 0.0 100817
09:00+18wnw243274 0.0 1008570
12:00+24wnw4520100 0.0 10061575
15:00+28ssw1414100 0.0 10033686
18:00+24wnw452779 0.3 1004519
21:00+22n113162 0.6 100313
19 may, wed
wed1900:00+20w22310 0.6 100512
03:00+18w22333 0.0 100411
06:00+16sw11364 0.0 100511
09:00+22ssw02231 0.0 1006356
12:00+28w2714100 0.0 10023939
15:00+30sw91012100 0.0 10004277
18:00+29wsw111212100 0.0 9994059
21:00+24sw6101773 0.0 1002184
20 may, thu
thu2000:00+21sw69240 0.0 1004150
03:00+18ssw22330 0.0 100427
06:00+15s23380 0.0 100518
09:00+20ssw35290 0.0 1006784
12:00+26sw610130 0.0 10022684
15:00+29ssw14151041 0.0 9994376
18:00+27ssw13151317 0.0 9983895
21:00+23sw691712 0.0 1000153